TimeAKST,TemperatureF,Dew PointF,Humidity,Sea Level PressureIn,VisibilityMPH,Wind Direction,Wind SpeedMPH,Gust SpeedMPH,PrecipitationIn,Events,Conditions,WindDirDegrees,DateUTC
12:53 AM,17.1,3.9,56,30.24,10.0,North,10.4,-,0.15,,Clear,10,2013-11-17 09:53:00
1:53 AM,15.1,3.9,61,30.24,10.0,North,9.2,-,0.03,,Clear,10,2013-11-17 10:53:00
2:53 AM,16.0,3.0,57,30.24,10.0,North,11.5,18.4,N/A,,Clear,10,2013-11-17 11:53:00
3:53 AM,15.1,3.0,59,30.23,10.0,North,5.8,-,N/A,,Clear,350,2013-11-17 12:53:00
4:53 AM,14.0,3.0,62,30.24,10.0,NNE,4.6,-,N/A,,Clear,30,2013-11-17 13:53:00
5:53 AM,12.9,1.9,62,30.23,10.0,NNE,6.9,-,N/A,,Clear,30,2013-11-17 14:53:00
6:53 AM,8.1,1.0,73,30.24,10.0,East,5.8,-,N/A,,Clear,80,2013-11-17 15:53:00
7:53 AM,3.0,-2.9,76,30.24,10.0,ESE,3.5,-,N/A,,Clear,110,2013-11-17 16:53:00
8:53 AM,3.0,-2.0,80,30.24,10.0,Calm,Calm,-,N/A,,Clear,0,2013-11-17 17:53:00
9:53 AM,7.0,-0.0,73,30.25,10.0,Calm,Calm,-,N/A,,Clear,0,2013-11-17 18:53:00
10:53 AM,10.9,1.0,64,30.25,10.0,Variable,4.6,-,N/A,,Clear,0,2013-11-17 19:53:00
11:53 AM,18.0,1.9,50,30.24,10.0,North,8.1,-,N/A,,Clear,350,2013-11-17 20:53:00
12:53 PM,19.0,1.0,46,30.22,10.0,North,9.2,-,N/A,,Clear,350,2013-11-17 21:53:00
1:53 PM,18.0,1.9,50,30.22,10.0,North,10.4,-,N/A,,Clear,350,2013-11-17 22:53:00
2:53 PM,18.0,1.9,50,30.21,10.0,NNW,8.1,-,N/A,,Clear,340,2013-11-17 23:53:00
3:53 PM,18.0,1.0,48,30.21,10.0,NNW,12.7,18.4,N/A,,Clear,340,2013-11-18 00:53:00
4:53 PM,17.1,1.0,50,30.21,10.0,North,12.7,20.7,N/A,,Clear,350,2013-11-18 01:53:00
5:53 PM,17.1,1.0,50,30.21,10.0,NNW,11.5,19.6,N/A,,Clear,340,2013-11-18 02:53:00
6:53 PM,16.0,1.0,52,30.20,10.0,North,-9999.0,-,N/A,,Clear,0,2013-11-18 03:53:00
7:53 PM,14.0,-0.0,54,30.22,10.0,NW,9.2,17.3,N/A,,Clear,320,2013-11-18 04:53:00
8:53 PM,14.0,-0.0,54,30.21,10.0,North,-9999.0,-,N/A,,Clear,0,2013-11-18 05:53:00
9:53 PM,12.9,-0.9,54,30.21,10.0,NNW,9.2,16.1,N/A,,Clear,330,2013-11-18 06:53:00
10:53 PM,8.1,-2.0,64,30.22,10.0,North,-9999.0,-,N/A,,Clear,0,2013-11-18 07:53:00
11:53 PM,5.0,-2.0,73,30.22,10.0,Calm,Calm,-,N/A,,Clear,0,2013-11-18 08:53:00